Other Public Products
Issued by NWS Grand Forks, ND

Home | Current Version | Previous Version | Graphics & Text | Print | Product List | Glossary On
Versions: 1 2 3 4 5 6 7 8 9 10 11 12 13 14 15 16 17 18 19 20 21 22 23 24 25 26 27 28 29 30 31 32 33 34 35 36 37 38 39 40 41 42 43 44 45 46 47 48 49 50
000
FPUS83 KFGF 290831
OPUFGF
PRAIRIE TO PINES WEATHER ROUNDUP
NATIONAL WEATHER SERVICE EASTERN NORTH DAKOTA/GRAND FORKS ND
200 AM CST MON DEC 29 2014

 **SATELLITE DATA USED TO AUGMENT SKY COVER AT AUTOMATED STATIONS**
 *****  WEATHER ACROSS EASTERN NORTH DAKOTA  *****

CITY           SKY/WX    TMP DP  RH WIND       PRES   REMARKS
GRAND FORKS    PTCLDY    -9 -14  78 N8        30.58R WCI -25
GRAND FORKS AF PTCLDY    -9 -14  80 N6        30.58R WCI -23
GRAND CITY NWS   N/A     -9 N/A N/A N10         N/A  WCI -28
BUXTON           N/A     -7 -11  83 NW8         N/A  WCI -23
DEVILS LAKE    MOCLDY    -9 -18  64 N8        30.51S WCI -26
FARGO          CLEAR     -5 -11  75 NW8       30.55R WCI -20
WAHPETON ARPT  SUNNY     -4  -9  77 N14       30.52R WCI -24
$$

 *****  WEATHER ACROSS CENTRAL AND WESTERN NORTH DAKOTA  *****

CITY           SKY/WX    TMP DP  RH WIND       PRES   REMARKS
JAMESTOWN      CLEAR     -7 -12  79 N7        30.49R WCI -21
BISMARCK       CLOUDY     1  -5  75 NE6       30.51R WCI -10
MINOT          CLEAR    -11 -17  75 NW9       30.53R WCI -29
MINOT AFB      PTCLDY   -13 -18  80 NW9       30.54R WCI -32
GARRISON         N/A     -7 -12  79 N10       30.50R WCI -25
WILLISTON      PTCLDY    -8 -14  74 N10       30.55R WCI -26
DICKINSON      CLOUDY     2  -2  83 NE13      30.38R WCI -15
HETTINGER      LGT SNOW   3  -1  83 NE14      30.36R FOG     WCI -15
$$

 *****  OTHER OBSERVATIONS NORTHEAST NORTH DAKOTA  *****

CITY           SKY/WX    TMP DP  RH WIND       PRES   REMARKS
WALHALLA         N/A    -13 -18  77 NW7       30.60R WCI -29
LANGDON        FAIR     -18 -26  69 NW10      30.50R WCI -39
CAVALIER       FAIR     -11 -17  77 N14       30.60R WCI -33
GRAFTON        NOT AVBL
CANDO          FAIR     -13 -18  77 NW6       30.54R WCI -27
FORT TOTTEN      N/A    -10 -17  70 N3        29.95
ROLLA          FAIR     -13 -18  77 N12       30.50R WCI -33
RUGBY          FAIR     -13 -18  77 NW3       30.54R
 ***** THE ABOVE OBSERVATIONS ARE NON NWS ARE NOT QUALITY
        CONTROLLED AND MAY MIS-REPORT RAIN FOR SNOW...
$$

 *****  OTHER OBSERVATIONS SOUTHEAST NORTH DAKOTA *****

CITY           SKY/WX    TMP DP  RH WIND       PRES   REMARKS
COOPERSTOWN    NOT AVBL
VALLEY CITY    FAIR      -6  -9  84 NW7       30.50R WCI -20
OAKES            N/A     -2  -6  84 N14       30.50S WCI -21
GWINNER        MOSUNNY   -2  -8  78 N7        30.52R WCI -16
BUFFALO        NOT AVBL
WYNDMERE         N/A     -4  -9  77 VRB10       N/A  WCI -21
 ***** THE ABOVE OBSERVATIONS ARE NON NWS ARE NOT QUALITY
       CONTROLLED AND MAY MIS-REPORT RAIN FOR SNOW...
$$

  *****  WEATHER ACROSS NORTHERN MINNESOTA  *****

CITY           SKY/WX    TMP DP  RH WIND       PRES   REMARKS
FLAG ISLAND    PTCLDY   -17 -20  83 NW14      30.47R WCI -40
WARROAD        PTCLDY   -15 -20  76 NW6       30.50R WCI -29
ROSEAU         MOCLDY   -13 -18  77 W3        30.52R
HALLOCK        PTCLDY   -13 -18  77 N9        30.58R WCI -31
THF RVR FALLS  PTCLDY   -11 -18  70 NW6       30.51R WCI -25
HALSTAD          N/A     -6 -13  73 N9          N/A  WCI -23
FOSSTON        CLEAR    -15 -18  84 CALM      30.49R
BAUDETTE       CLEAR    -13 -19  75 NW10      30.45R WCI -32
WASKISH        CLEAR    -11 -15  84 NW5       30.46R WCI -23
CROOKSTON      PTCLDY    -9 -15  77 N10       30.58R WCI -28
$$
  *****  WEATHER ACROSS CENTRAL AND WEST MINNESOTA  *****

CITY           SKY/WX    TMP DP  RH WIND       PRES   REMARKS
BEMIDJI        PTCLDY   -12 -16  82 NW6       30.44R WCI -25
PARK RAPIDS    CLEAR     -6 -11  79 N7        30.41R WCI -20
WADENA         CLEAR     -4  -8  84 NW3       30.43R
DETROIT LAKES    N/A     -6  -9  84 N9        30.46S WCI -22
MOORHEAD       CLEAR     -6  -8  92 N13       30.55R WCI -25
FERGUS FALLS   CLEAR     -4 -11  71 N9        30.52R WCI -20
ELBOW LAKE     FAIR      -2  -6  84 N10       30.45R WCI -19
MORRIS MN      PTCLDY     1  -4  78 N17       30.44R WCI -19
STAPLES        CLEAR     -4  -8  84 N8        30.43R WCI -19
WHEATON        PTCLDY    -6  -9  84 NW13G18   30.52R WCI -25
$$
  *****  WEATHER ELSEWHERE ACROSS MINNESOTA  *****

CITY           SKY/WX    TMP DP  RH WIND       PRES   REMARKS
DULUTH         CLEAR     -4 -10  75 NW7       30.35R WCI -18
INTRNTL FALLS  CLEAR    -13 -18  78 W6        30.42R WCI -27
ELY            CLEAR    -13 -17  84 CALM      30.35R
CLOQUET        CLEAR     -4  -9  77 NW7       30.38R WCI -18
BRAINERD       FAIR       0  -5  79 N7        30.42R WCI -13
HIBBING        CLOUDY    -7 -13  75 NW8       30.40R HAZE    WCI -23
ALEXANDRIA     CLEAR      4  -2  76 N6        30.40R WCI  -7
SAINT CLOUD    CLOUDY     8  -1  66 N7        30.41R WCI  -3
MINNEAPOLIS    CLOUDY     9  -2  61 N10       30.41R WCI  -5
$$

  *****  WEATHER ACROSS SOUTH DAKOTA  *****

CITY           SKY/WX    TMP DP  RH WIND       PRES   REMARKS
SIOUX FALLS    CLOUDY    12   7  80 NE16      30.32R WCI  -5
BROOKINGS      NOT AVBL
WATERTOWN      CLOUDY     1  -5  75 NE12      30.35R WCI -16
HURON          LGT SNOW   9   4  80 N10       30.39R WCI  -5
SISSETON         N/A     -2  -7  79 N17       30.48R WCI -23
ABERDEEN       CLOUDY     2  -5  72 NE16      30.46R WCI -18
MITCHELL       LGT SNOW  13   9  84 NE10      30.37R FOG     WCI   0
PIERRE         CLOUDY     6   0  76 NE16      30.37R WCI -12
MOBRIDGE       CLOUDY     6  -1  73 N10       30.39R WCI  -9
RAPID CITY     LGT SNOW  10   7  87 NE13      30.24R FOG     WCI  -5
$$

  *****  SOME WEATHER IN NEARBY STATES *****

CITY           SKY/WX    TMP DP  RH WIND       PRES   REMARKS
GLASGOW MT     CLOUDY     1  -7  68 NE10      30.54R WCI -15
GREAT FALLS MT LGT SNOW   4   1  88 N10       30.42R FOG     WCI -11
CHEYENNE WY    MOCLDY    14   6  70 W13       29.93R WCI   0
SCOTTSBLUFF NE LGT SNOW  19  15  84 N12       30.05R FOG     WCI   7
OMAHA NE       PTCLDY    22  19  89 N8        30.25R WCI  12
DES MOINES IA  CLOUDY    28  22  78 NE8       30.25R WCI  20
DAVENPORT IA   CLOUDY    25  18  74 NE7       30.27R WCI  17
CHICAGO IL     MOCLDY    27  19  72 N5        30.26R WCI  22
EAU CLAIRE WI  CLOUDY     5  -1  76 NW5       30.39R WCI  -4
LA CROSSE WI   CLOUDY    18  12  77 N6        30.36R WCI  10
$$

  *****  SOME NATIONAL WEATHER *****

CITY           SKY/WX    TMP DP  RH WIND       PRES   REMARKS
LA GUARDIA NY  CLOUDY    40  25  55 NW13G20   30.13R
RALEIGH NC     LGT RAIN  55  52  88 NE6       30.05F FOG
ATLANTA GA     RAIN      55  52  89 NW7       30.09R FOG
NEW ORLEANS LA CLOUDY    57  55  93 NW5       30.06R
OKLAHOMA CITY  PTCLDY    32  21  64 SE10      30.07F WCI  24
ALBUQUERQUE NM PTCLDY    23  12  62 E8        30.05F WCI  14
SALT LAKE CITY CLOUDY    28  25  88 SE5       30.01F WCI  23
LOS ANGELES CA CLEAR     50  38  63 NE5       30.17F
BOISE ID       FOG       28  27  93 W3        30.10S VSB 1/2
SEATTLE WA     MOCLDY    38  36  92 CALM      30.15S
$$

*** WEATHER ACROSS MANITOBA...SASKATCHEWAN AND ONTARIO ***
                ***ONTARIO***

CITY           SKY/WX    TMP DP  RH WIND       PRES   REMARKS
GERALDTON      CLEAR    -13 -18  77 W6        30.19R WCI -27
THUNDER BAY    CLEAR     -8 -15  71 W10G18    30.38  WCI -26
SIOUX LOOKOUT  CLEAR    -18 -24  76 NW7       30.35R WCI -35
TORONTO        CLOUDY    32  18  55 NW16      30.16  WCI  21
BIG TROUT LK   FLURRIES -22 -26  83 W12       30.16R WCI -45
PICKLE LAKE    NOT AVBL
DRYDEN         CLEAR    -20 -26  76 W12       30.37R WCI -42
KENORA         CRYSTALS -20 -26  76 NW6       30.42  WCI -36
$$
                *** MANITOBA***

CITY           SKY/WX    TMP DP  RH WIND       PRES   REMARKS
BRANDON        CLEAR    -22 -29  69 W8        30.57  WCI -41
DAUPHIN        CLEAR    -29 -36  68 W6        30.63R WCI -46
ISLAND LAKE    PTCLDY   -20 -29  63 W10       30.37R WCI -41
PILOT MOUND      N/A    -20 -26  76 NW6         N/A  WCI -36
THE PAS        CLEAR    -24 -29  76 W7        30.63S WCI -42
THOMPSON       CLEAR    -18 -26  69 NW9       30.43  WCI -38
WINNIPEG       CLEAR    -24 -31  69 W8        30.60  WCI -43
CHURCHILL      LGT SNOW  -4  -9  77 N28G37    30.26  BLWGSNOWWCI -30
GILLAM         CLEAR    -17 -22  76 NW9       30.32  WCI -36
$$
                ***SASKATCHEWAN***

CITY           SKY/WX    TMP DP  RH WIND       PRES   REMARKS
ESTEVAN        CLEAR    -15 -20  76 NW9       30.56R WCI -33
KINDERSLEY     MOCLDY   -15 -18  84 CALM      30.64R
LLOYDMINSTER   CLOUDY    -8 -11  84 N10       30.68R WCI -26
PRINCE ALBERT  PTCLDY   -24 -29  76 W5        30.70S WCI -38
REGINA         CLEAR    -18 -22  83 NW12      30.61  WCI -40
YORKTON        CLEAR    -22 -27  76 W9        30.60R WCI -42
N. BATTLEFORD  CLOUDY    -9 -15  77 NW7       30.72R WCI -24



USA.gov is the U.S. government's official web portal to all federal, state and local government web resources and services.